Pocatello, ID

3:46 AM MDT on May 27, 2017 (GMT -0600)
Pocatello Regional

Weather History for KPIH - November, 2012

Change the Weather History Date:

Wednesday, November 7, 2012

  Actual Average Record
Temperature  
Mean Temperature 52 °F 38 °F  
Max Temperature 69 °F 50 °F 70 °F (1980)
Min Temperature 35 °F 27 °F 6 °F (2003)
Degree Days  
Heating Degree Days 13 27  
Month to date heating degree days 123 177  
Since 1 July heating degree days 821 984  
Cooling Degree Days 0 0  
Month to date cooling degree days 0 0  
Year to date cooling degree days 560 392  
Growing Degree Days 2 (Base 50)    
Moisture  
Dew Point 31 °F    
Average Humidity 55    
Maximum Humidity 89    
Minimum Humidity 21    
Precipitation  
Precipitation 0.00 in 0.03 in 0.80 in (1969)
Month to date precipitation 0.00 0.22  
Year to date precipitation 7.59 10.00  
Snow  
Snow 0.00 in - - ()
Month to date snowfall 0.0  
Since 1 July snowfall 2.2  
Since 1 September snowfall 2.2  
Snow Depth 0.00 in    
Sea Level Pressure  
Sea Level Pressure 29.95 in    
Wind  
Wind Speed 9 mph (WNW)    
Max Wind Speed 22 mph    
Max Gust Speed 26 mph    
Visibility 10 miles    
Events      
T = Trace of Precipitation, MM = Missing Value Source: NWS Daily Summary

Daily Weather History Graph

Daily Weather History Graph

Search for Another Location

Airport or City:

Trip Planner

Search our weather history database for the weather conditions in past years. The results will help you decide how hot, cold, wet, or windy it might be!

Date:

Astronomy

Nov. 07, 2012 Rise Set
Actual Time 7:13 AM MST 5:14 PM MST
Civil Twilight 6:43 AM MST 5:44 PM MST
Nautical Twilight 6:09 AM MST 6:18 PM MST
Astronomical Twilight 5:36 AM MST 6:51 PM MST
Moon 12:00 AM MST (11/7) 1:34 PM MST (11/7)
Length of Visible Light 11h 01m
Length of Day
10h 01m
Last Quarter, 42% of the Moon is Illuminated
Nov 7
Last Quarter
Nov 13
New
Nov 20
First Quarter
Nov 28
Full
Dec 6
Last Quarter

Hourly Weather History & Observations

Time (MST) Temp. Windchill Dew Point Humidity Pressure Visibility Wind Dir Wind Speed Gust Speed Precip Events Conditions
12:53 AM 37.0 °F 31.6 °F 32.0 °F 82% 30.09 in 10.0 mi North 6.9 mph - N/A   Clear
1:53 AM 35.1 °F 31.0 °F 30.9 °F 85% 30.07 in 10.0 mi North 4.6 mph - N/A   Clear
2:53 AM 36.0 °F 30.3 °F 32.0 °F 86% 30.05 in 10.0 mi North 6.9 mph - N/A   Clear
3:53 AM 37.0 °F 29.3 °F 32.0 °F 82% 30.03 in 10.0 mi North 11.5 mph - N/A   Clear
4:53 AM 37.0 °F 33.3 °F 32.0 °F 82% 30.04 in 10.0 mi North 4.6 mph - N/A   Clear
5:53 AM 36.0 °F 32.1 °F 30.9 °F 82% 30.06 in 10.0 mi NNW 4.6 mph - N/A   Clear
6:53 AM 37.9 °F 33.5 °F 30.9 °F 76% 30.04 in 10.0 mi North 5.8 mph - N/A   Clear
7:53 AM 39.0 °F 34.0 °F 32.0 °F 76% 30.04 in 10.0 mi NNE 6.9 mph - N/A   Clear
8:53 AM 48.9 °F - 37.0 °F 64% 30.02 in 10.0 mi North 6.9 mph - N/A   Clear
9:53 AM 63.0 °F - 33.1 °F 33% 29.97 in 10.0 mi South 17.3 mph 25.3 mph N/A   Clear
10:53 AM 64.9 °F - 30.9 °F 28% 29.97 in 10.0 mi SSW 12.7 mph - N/A   Clear
11:53 AM 66.9 °F - 32.0 °F 27% 29.95 in 10.0 mi SW 13.8 mph 24.2 mph N/A   Partly Cloudy
12:53 PM 68.0 °F - 28.0 °F 22% 29.92 in 10.0 mi WSW 18.4 mph 24.2 mph N/A   Partly Cloudy
1:53 PM 68.0 °F - 27.0 °F 21% 29.90 in 10.0 mi West 17.3 mph - N/A   Partly Cloudy
2:53 PM 66.9 °F - 28.0 °F 23% 29.89 in 10.0 mi West 19.6 mph - N/A   Partly Cloudy
3:53 PM 64.9 °F - 28.9 °F 26% 29.88 in 10.0 mi West 11.5 mph - N/A   Partly Cloudy
4:53 PM 57.9 °F - 30.9 °F 36% 29.90 in 10.0 mi WSW 6.9 mph - N/A   Partly Cloudy
5:53 PM 55.9 °F - 28.9 °F 36% 29.91 in 10.0 mi SW 9.2 mph - N/A   Clear
6:53 PM 48.0 °F - 30.9 °F 52% 29.92 in 10.0 mi South 8.1 mph - N/A   Clear
7:53 PM 48.9 °F - 30.9 °F 50% 29.90 in 10.0 mi SE 3.5 mph - N/A   Partly Cloudy
8:53 PM 48.0 °F - 30.9 °F 52% 29.87 in 10.0 mi ENE 3.5 mph - N/A   Partly Cloudy
9:53 PM 44.1 °F 42.5 °F 28.9 °F 55% 29.85 in 10.0 mi SSW 3.5 mph - N/A   Mostly Cloudy
10:53 PM 39.9 °F 33.9 °F 30.9 °F 70% 29.83 in 10.0 mi NW 9.2 mph - N/A   Clear
11:53 PM 42.1 °F 37.1 °F 30.0 °F 62% 29.81 in 10.0 mi South 8.1 mph - N/A   Partly Cloudy